[[{"header":{"parameterUnit":"m.s-1","parameterCategory":1,"la1":30.2991,"la2":30.254,"lo1":-89.0895,"lo2":-89.0444,"dy":0.0017,"dx":0.0017,"nx":28,"ny":28,"refTime":"2024-12-10T03:00:00:Z","depth":0,"parameterNumber":2,"parameterNumberName":"U-component_of_WINDS"},"data":[0,0,0,0,0,0,0,0,0,0,0,0,0,0,0,0,0,0,0,0,0,0,0,0,0,0,0,0,0,0,0,0,0,0,0,0,0,0,0,0,0,0,0,0,0,0,0,0,0,0,0,0,0,0,0,0,0,0,4.1582,4.1583,0,4.1669,4.167,4.1671,4.1642,4.164,4.1638,4.1636,4.1724,4.1728,4.1732,0,0,0,0,0,0,0,0,0,0,0,0,0,4.1391,4.1395,4.1582,4.1583,4.1584,4.1669,4.167,4.1671,4.1642,4.164,4.1637,4.1635,4.1723,4.1727,4.1732,0,0,0,0,0,0,0,0,0,0,0,0,0,4.1476,4.1396,4.1582,4.158,4.158,4.1668,4.167,4.1671,4.1642,4.1639,4.1637,4.1634,4.1721,4.1727,4.1733,4.1828,0,0,4.1752,4.1754,0,0,0,0,0,0,0,0,4.1471,4.1483,4.1579,4.158,4.1581,4.1641,4.1635,4.1724,4.1643,4.1619,4.1636,4.1633,4.1699,4.1706,4.1729,4.1832,4.1836,4.1752,4.1756,4.1759,4.176,0,0,0,0,0,0,0,4.1465,4.1479,4.1616,4.158,4.1582,4.1575,4.1584,4.1652,4.1674,4.1621,4.1619,4.163,4.1699,4.1723,4.1731,4.1837,4.1752,4.1758,4.1761,4.1764,4.2025,4.2028,0,0,0,0,0,0,4.1459,4.1474,4.1613,4.1619,4.1518,4.158,4.159,4.1625,4.1673,4.1677,4.1632,4.1628,4.1714,4.1724,4.1734,4.185,4.1759,4.1764,4.1768,4.2022,4.2026,4.2029,0,0,0,0,0,0,4.1455,4.1471,4.161,4.1546,4.1563,4.1587,4.1626,4.1628,4.1652,4.1681,4.1685,4.1653,4.1712,4.1725,4.1805,4.1852,4.1767,4.1773,4.2018,4.2023,4.2028,4.2081,0,0,0,0,0,0,4.1449,4.147,4.1506,4.1547,4.1567,4.168,4.1629,4.1632,4.1663,4.1659,4.1702,4.1706,4.1711,4.1796,4.1812,4.1859,4.1778,4.2014,4.202,4.2026,4.2075,4.2087,4.2098,0,0,0,0,0,4.1443,4.1517,4.1508,4.1525,4.1612,4.1683,4.1694,4.1698,4.1667,4.1704,4.1723,4.1705,4.1845,4.1805,4.1822,4.1872,4.2011,4.2019,4.2026,4.2071,4.2085,4.2097,0,0,0,0,0,0,4.1479,4.1522,4.1513,4.1602,4.1639,4.1677,4.1723,4.1713,4.1759,4.1753,4.1756,4.1766,4.1849,4.1868,4.1823,4.1968,4.1923,4.1934,4.1952,4.1966,4.1977,4.197,4.1783,0,0,0,0,0,4.1498,4.1552,4.1586,4.1662,4.1681,4.17,4.173,4.1731,4.1769,4.1784,4.1809,4.1846,4.1899,4.1934,4.1983,4.2079,4.2088,4.2122,4.2133,4.2142,4.2151,4.2205,4.2221,4.2053,4.2053,4.2053,0,0,4.1537,4.1567,4.16,4.167,4.1699,4.1755,4.1713,4.1773,4.1815,4.1793,4.1871,4.1891,4.1933,4.2022,4.2062,4.2041,4.22,4.2151,4.2158,4.2163,4.2214,4.223,4.2244,4.2058,4.2058,4.2057,0,0,4.1636,4.1664,4.1731,4.1761,4.1806,4.1818,4.1835,4.1875,4.1888,4.1966,4.1952,4.2002,4.2092,4.2124,4.2152,4.2267,4.2253,4.2283,4.2341,4.2394,4.2407,4.2418,4.2461,4.2476,4.2292,4.2293,4.2293,0,4.1678,4.1762,4.1767,4.183,4.1862,4.1846,4.1915,4.1944,4.2002,4.2025,4.2,4.2115,4.2142,4.2239,4.2268,4.2291,4.231,4.2278,4.2405,4.2416,4.2427,4.2468,4.2484,4.2296,4.2296,4.2295,4.2295,0,4.1813,4.1872,4.1921,4.198,4.2017,4.2082,4.2097,4.2135,4.2133,4.2148,4.223,4.2262,4.232,4.2343,4.234,4.2441,4.2426,4.2403,4.2359,4.2447,4.2485,4.25,4.2301,4.23,4.2299,4.2298,0,0,4.1936,4.1998,4.2016,4.2044,4.2093,4.2139,4.2205,4.2262,4.2295,4.2336,4.2392,4.247,4.2451,4.2482,4.2484,4.253,4.2622,4.2502,4.2503,4.2524,4.2736,4.2753,4.2771,4.2613,4.2616,4.2618,4.2733,0,4.2041,4.2156,4.2163,4.2268,4.2324,4.2311,4.2369,4.2406,4.2422,4.2472,4.249,4.2547,4.2515,4.2535,4.258,4.2601,4.2664,4.2593,4.2666,4.2668,4.2656,4.279,4.2808,4.2914,4.2747,4.275,4.2752,0,4.2177,4.2225,4.2335,4.238,4.2403,4.2455,4.2509,4.2557,4.2599,4.2608,4.2646,4.2642,4.271,4.2664,4.2759,4.2711,4.2741,4.2756,4.2761,4.2767,4.2715,4.2802,4.2948,4.2964,4.2775,4.2773,4.2771,0,4.2257,4.2349,4.2428,4.2451,4.2504,4.2541,4.2565,4.2605,4.264,4.2687,4.271,4.2765,4.2795,4.2838,4.285,4.2815,4.2946,4.29,4.2956,4.2956,4.2984,4.2982,4.3138,4.3003,4.3003,4.3002,4.3002,0,4.2373,4.2442,4.2465,4.2513,4.259,4.2599,4.2675,4.2696,4.2733,4.2786,4.2778,4.2828,4.284,4.2893,4.2903,4.2981,4.2995,4.3004,4.3006,4.3005,4.3004,4.3025,4.3018,4.3007,4.3006,4.3005,4.3004,0,4.2475,4.2493,4.2579,4.2623,4.2636,4.2691,4.2729,4.2776,4.2793,4.286,4.2877,4.2903,4.2965,4.2981,4.3055,4.3061,4.3154,4.3149,4.314,4.314,4.3196,4.3191,4.3371,4.3395,4.3244,4.3245,4.3247,0,4.2548,4.2601,4.2651,4.2687,4.2713,4.277,4.2806,4.2817,4.2855,4.2909,4.295,4.3012,4.3061,4.3161,4.3187,4.3244,4.3241,4.33,4.3249,4.3247,4.3243,4.324,4.3246,4.3309,4.3311,4.3312,4.3313,0,4.2676,4.2683,4.2735,4.2792,4.2836,4.2881,4.2924,4.2953,4.2971,4.3014,4.3078,4.3117,4.3194,4.3255,4.3313,4.3338,4.333,4.333,4.3346,4.3345,4.3339,4.3344,4.3167,4.3325,4.3324,4.3323,4.3322,4.3322,4.2766,4.2813,4.2857,4.2917,4.2951,4.2992,4.3039,4.3063,4.3116,4.318,4.3184,4.3254,4.3297,4.3375,4.3404,4.3459,4.3441,4.3464,4.347,4.3476,4.3481,4.333,4.3469,4.3469,4.3469,4.3469,4.3468,0,4.2894,4.2923,4.2977,4.3039,4.3086,4.3075,4.3123,4.3163,4.3225,4.3267,4.3317,4.3391,4.3452,4.3484,4.3544,4.3583,4.358,4.3598,4.3595,4.3602,4.3493,4.3473,4.3599,4.3599,4.3599,4.3599,4.3599,4.3599,4.2967,4.3047,4.3059,4.3157,4.3185,4.3254,4.3282,4.3321,4.3355,4.3439,4.3489,4.351,4.3549,4.3612,4.3668,4.3676,4.3699,4.3719,4.3725,4.3622,4.3609,4.3596,4.3578,4.3724,4.3724,4.3829,4.383,4.3831]},{"header":{"parameterUnit":"m.s-1","parameterCategory":1,"la1":30.2991,"la2":30.254,"lo1":-89.0895,"lo2":-89.0444,"dy":0.0017,"dx":0.0017,"nx":28,"ny":28,"refTime":"2024-12-10T03:00:00:Z","depth":0,"parameterNumber":3,"parameterNumberName":"V-component_of_WINDS"},"data":[0,0,0,0,0,0,0,0,0,0,0,0,0,0,0,0,0,0,0,0,0,0,0,0,0,0,0,0,0,0,0,0,0,0,0,0,0,0,0,0,0,0,0,0,0,0,0,0,0,0,0,0,0,0,0,0,0,0,-7.9558,-7.956,0,-7.9742,-7.9744,-7.9747,-7.9708,-7.9704,-7.9701,-7.9698,-7.9882,-7.989,-7.9898,0,0,0,0,0,0,0,0,0,0,0,0,0,-7.917,-7.9177,-7.9558,-7.956,-7.9563,-7.9742,-7.9745,-7.9747,-7.9708,-7.9704,-7.97,-7.9696,-7.9879,-7.9889,-7.9898,0,0,0,0,0,0,0,0,0,0,0,0,0,-7.9345,-7.918,-7.9558,-7.9565,-7.9568,-7.9742,-7.9745,-7.9748,-7.9709,-7.9704,-7.9699,-7.9694,-7.9876,-7.9888,-7.99,-8.0076,0,0,-7.9937,-7.9942,0,0,0,0,0,0,0,0,-7.9335,-7.9359,-7.9562,-7.9565,-7.9568,-7.9697,-7.9675,-7.9858,-7.971,-7.9655,-7.9698,-7.9692,-7.9824,-7.984,-7.9886,-8.0085,-8.0093,-7.9938,-7.9945,-7.995,-7.9954,0,0,0,0,0,0,0,-7.9323,-7.9351,-7.9631,-7.9565,-7.9569,-7.9558,-7.9578,-7.971,-7.9766,-7.966,-7.9657,-7.968,-7.9825,-7.9874,-7.989,-8.0096,-7.9938,-7.9948,-7.9956,-7.996,-8.0451,-8.0457,0,0,0,0,0,0,-7.9308,-7.9341,-7.9625,-7.9636,-7.9437,-7.9569,-7.9591,-7.9661,-7.9764,-7.9775,-7.9684,-7.9677,-7.9856,-7.9876,-7.9896,-8.0112,-7.995,-7.9962,-7.9969,-8.0446,-8.0453,-8.0459,0,0,0,0,0,0,-7.93,-7.9334,-7.9617,-7.9488,-7.9524,-7.9582,-7.966,-7.9667,-7.9716,-7.9783,-7.9792,-7.9724,-7.9853,-7.9879,-8.0033,-8.0117,-7.9967,-7.9978,-8.0439,-8.0448,-8.0456,-8.0543,0,0,0,0,0,0,-7.9289,-7.9331,-7.94,-7.949,-7.9531,-7.9752,-7.9665,-7.9674,-7.9738,-7.9731,-7.9823,-7.9834,-7.9851,-8.0015,-8.0045,-8.0131,-7.9988,-8.0432,-8.0443,-8.0453,-8.0533,-8.0553,-8.0571,0,0,0,0,0,-7.9275,-7.9415,-7.9403,-7.9438,-7.9617,-7.9757,-7.978,-7.9798,-7.9745,-7.9814,-7.9857,-7.9831,-8.0103,-8.0031,-8.0064,-8.0156,-8.0426,-8.044,-8.0452,-8.0524,-8.0549,-8.0571,0,0,0,0,0,0,-7.9331,-7.9427,-7.9415,-7.9588,-7.9665,-7.975,-7.9838,-7.9824,-7.9917,-7.9906,-7.9923,-7.9945,-8.0102,-8.0144,-8.0062,-8.0333,-8.0257,-8.0277,-8.03,-8.0325,-8.0344,-8.033,-7.9998,0,0,0,0,0,-7.9364,-7.947,-7.9548,-7.9693,-7.9733,-7.9779,-7.984,-7.9848,-7.9928,-7.996,-8.0014,-8.0091,-8.0194,-8.0262,-8.036,-8.0538,-8.0559,-8.0618,-8.0637,-8.0653,-8.067,-8.0769,-8.0797,-8.0502,-8.0502,-8.0501,0,0,-7.9432,-7.9497,-7.9563,-7.9706,-7.9767,-7.9876,-7.9806,-7.9924,-8.0006,-7.9977,-8.0126,-8.0169,-8.0256,-8.0424,-8.05,-8.0464,-8.0756,-8.0669,-8.0681,-8.069,-8.0786,-8.0813,-8.0838,-8.051,-8.0509,-8.0507,0,0,-7.9612,-7.9672,-7.9801,-7.9864,-7.9957,-7.9987,-8.0018,-8.0107,-8.0135,-8.0285,-8.0267,-8.0363,-8.054,-8.0604,-8.0659,-8.0867,-8.0847,-8.0898,-8.0999,-8.1095,-8.1119,-8.1139,-8.1215,-8.1241,-8.0915,-8.0915,-8.0915,0,-7.9685,-7.985,-7.9869,-7.999,-8.0054,-8.0035,-8.0166,-8.0225,-8.0345,-8.039,-8.0347,-8.0571,-8.0628,-8.0812,-8.0863,-8.0908,-8.0944,-8.0888,-8.1114,-8.1135,-8.1155,-8.1227,-8.1255,-8.0921,-8.092,-8.092,-8.0919,0,-7.9935,-8.0051,-8.0143,-8.0263,-8.0337,-8.0462,-8.0499,-8.0572,-8.0574,-8.0608,-8.0763,-8.0831,-8.0944,-8.0988,-8.099,-8.1172,-8.1147,-8.111,-8.1033,-8.1188,-8.1256,-8.1284,-8.0929,-8.0927,-8.0925,-8.0924,0,0,-8.0155,-8.0285,-8.0318,-8.0373,-8.0476,-8.0565,-8.069,-8.0802,-8.0865,-8.0949,-8.1054,-8.1206,-8.1172,-8.1236,-8.1244,-8.1329,-8.1491,-8.1281,-8.1284,-8.1319,-8.1698,-8.1727,-8.1758,-8.1479,-8.1484,-8.1488,-8.1691,0,-8.0345,-8.0568,-8.0589,-8.0787,-8.0895,-8.0879,-8.0988,-8.1063,-8.1099,-8.1194,-8.1233,-8.1341,-8.1288,-8.1327,-8.141,-8.1454,-8.1568,-8.1439,-8.1577,-8.1581,-8.1556,-8.1794,-8.1824,-8.2012,-8.1718,-8.1723,-8.1726,0,-8.0597,-8.0692,-8.0902,-8.0992,-8.1037,-8.1135,-8.1241,-8.1333,-8.1417,-8.1438,-8.151,-8.1508,-8.1637,-8.1556,-8.1733,-8.1645,-8.1703,-8.1733,-8.1741,-8.1755,-8.1663,-8.1815,-8.2073,-8.2102,-8.1768,-8.1764,-8.1761,0,-8.0738,-8.0917,-8.1067,-8.1114,-8.1222,-8.1291,-8.1339,-8.1419,-8.1486,-8.1578,-8.1622,-8.1727,-8.1785,-8.1867,-8.1893,-8.1832,-8.2071,-8.1991,-8.2091,-8.2091,-8.2142,-8.2139,-8.2414,-8.2178,-8.2177,-8.2177,-8.2176,0,-8.095,-8.1079,-8.1132,-8.1224,-8.1369,-8.1392,-8.1534,-8.1578,-8.165,-8.175,-8.1742,-8.1836,-8.1865,-8.1964,-8.1986,-8.2131,-8.2156,-8.2176,-8.218,-8.2178,-8.2175,-8.2216,-8.2204,-8.2184,-8.2183,-8.2181,-8.218,0,-8.1131,-8.1172,-8.1334,-8.1424,-8.145,-8.1553,-8.163,-8.1719,-8.1754,-8.1881,-8.1912,-8.1966,-8.2083,-8.2118,-8.2257,-8.2271,-8.2441,-8.2433,-8.2414,-8.2414,-8.2513,-8.2503,-8.2824,-8.2868,-8.2602,-8.2604,-8.2607,0,-8.1264,-8.1364,-8.1466,-8.1533,-8.1585,-8.1693,-8.1763,-8.1789,-8.1862,-8.1967,-8.2043,-8.2159,-8.2253,-8.2439,-8.2491,-8.2598,-8.2593,-8.2698,-8.2608,-8.2603,-8.2596,-8.259,-8.2601,-8.2715,-8.2717,-8.272,-8.2721,0,-8.1496,-8.1512,-8.1613,-8.1722,-8.1806,-8.1892,-8.1975,-8.2031,-8.207,-8.2151,-8.2271,-8.2345,-8.2488,-8.2603,-8.2713,-8.2761,-8.2749,-8.2749,-8.2778,-8.2777,-8.2762,-8.2773,-8.2461,-8.2742,-8.274,-8.2738,-8.2737,-8.2736,-8.1658,-8.1747,-8.1833,-8.1947,-8.2013,-8.2092,-8.218,-8.2228,-8.2329,-8.2449,-8.2459,-8.2589,-8.2672,-8.2818,-8.2872,-8.2974,-8.2943,-8.2985,-8.2996,-8.3006,-8.3015,-8.2746,-8.2994,-8.2993,-8.2993,-8.2992,-8.2992,0,-8.1891,-8.1946,-8.205,-8.2169,-8.2258,-8.224,-8.2332,-8.2408,-8.2523,-8.2603,-8.2697,-8.2835,-8.2948,-8.3009,-8.3121,-8.3191,-8.3188,-8.3219,-8.3215,-8.3226,-8.3035,-8.2999,-8.322,-8.322,-8.322,-8.322,-8.322,-8.322,-8.2022,-8.2172,-8.2199,-8.2382,-8.2436,-8.2565,-8.2619,-8.2692,-8.2756,-8.2912,-8.3006,-8.3046,-8.3119,-8.3236,-8.3339,-8.3354,-8.3396,-8.3431,-8.3443,-8.3263,-8.3239,-8.3217,-8.3184,-8.3439,-8.344,-8.3626,-8.3627,-8.3629]}]]